Theta_e
314 316 321 320 319 320 319 321 322 322 317 314 318 319 320 320 319 319 318 317 316 314 314 313 311 310 310 309 308 303 302 309 311 312 312 312 311 311 310 310 309 307 306 306
314 316 318 316 316 317 317 319 322 321 315 313 318 318 319 319 317 316 316 315 314 315 313 312 309 310 310 309 306 302 305 311 311 313 312 311 311 310 311 311 308 306 306 306
318 318 315 314 315 316 317 320 323 320 317 317 315 324 326 318 314 314 313 313 312 313 313 311 308 309 309 308 303 302 306 311 311 313 312 311 312 312 311 311 308 307 306 308
316 316 314 314 316 316 319 318 317 316 317 323 315 333 324 323 319 315 313 313 313 311 312 310 308 308 309 306 302 302 306 311 312 313 313 312 313 314 312 311 310 308 308 308
315 314 314 316 317 316 318 313 314 314 317 317 319 323 330 322 320 316 315 314 312 311 311 309 308 308 308 304 302 302 308 311 313 314 313 312 313 315 315 313 312 310 309 311
313 310 313 314 311 313 313 313 314 314 316 325 324 322 333 332 320 315 314 312 311 310 310 308 307 308 306 302 302 303 309 311 313 314 314 313 313 315 315 315 314 314 313 315
312 312 310 310 312 311 313 315 328 331 324 325 313 316 324 321 314 313 314 312 311 310 309 307 308 307 304 302 302 306 310 311 313 313 314 313 313 315 315 315 314 317 317 316
316 316 312 310 313 315 313 316 321 328 326 321 312 318 323 315 314 310 313 312 310 310 308 307 307 306 302 302 301 307 310 311 312 313 314 313 314 313 317 317 315 317 319 318
315 315 309 310 309 312 313 313 313 315 311 317 317 318 318 312 312 311 311 313 311 310 308 307 306 305 302 302 302 307 309 311 312 312 314 314 314 314 315 316 316 319 316 317
312 315 309 308 308 309 311 311 313 314 326 324 321 319 321 315 313 312 312 311 312 311 309 307 306 306 302 302 302 306 309 311 311 312 313 314 314 314 314 316 317 318 317 319
312 314 312 309 310 312 309 311 311 314 317 321 323 322 316 316 313 313 313 313 312 312 310 307 306 306 303 302 302 306 308 311 311 311 312 313 314 314 314 315 315 317 318 318
311 314 317 312 309 309 311 311 312 316 318 314 314 320 312 311 310 310 311 313 312 312 311 308 307 306 304 302 302 304 307 310 311 312 312 313 314 314 313 315 316 316 316 318
311 316 319 315 310 307 310 310 312 314 311 316 320 321 311 310 309 309 311 311 311 311 310 309 306 306 305 302 302 303 306 309 311 312 312 313 314 314 313 313 314 316 316 317
310 313 318 321 317 313 310 311 311 312 316 317 316 319 315 313 312 311 310 310 310 309 309 308 306 306 306 304 302 302 305 308 309 312 313 313 314 313 312 314 314 316 316 316
309 315 311 311 312 311 312 311 312 311 313 317 319 316 317 317 314 312 311 311 310 310 309 308 308 308 307 305 303 302 304 307 309 312 312 312 313 313 314 313 313 315 314 314
308 314 308 310 310 310 310 311 312 312 312 313 315 315 313 314 315 312 312 311 310 309 309 308 307 307 307 307 305 303 302 305 308 309 311 311 312 311 312 311 313 312 313 314
310 310 311 318 308 309 314 311 312 312 312 312 314 314 314 313 313 313 313 313 311 309 309 308 309 309 309 308 307 305 303 303 307 308 310 311 311 311 313 313 313 313 313 314
307 309 312 317 311 318 317 310 311 313 313 312 312 313 313 313 313 313 312 312 311 309 309 308 309 309 309 309 308 306 304 303 305 308 308 309 310 310 311 312 313 312 312 312
307 309 314 316 316 316 314 309 311 312 305 304 304 305 307 310 310 310 311 310 311 310 309 309 310 308 307 307 307 306 305 303 303 306 307 309 309 310 310 311 311 311 310 311
308 308 311 314 318 318 305 302 302 308 313 299 301 302 303 305 312 313 311 311 308 308 308 307 305 306 306 305 305 305 305 305 303 303 307 308 309 309 310 311 311 311 308 309
309 309 310 313 317 312 297 299 300 314 305 297 296 298 298 303 308 305 304 304 303 304 304 304 304 304 305 304 304 304 304 305 306 303 305 308 309 309 309 309 309 309 308 307
302 301 309 312 315 313 295 297 299 295 295 294 294 293 294 298 301 301 302 302 303 303 304 304 304 304 303 304 304 304 304 304 304 303 303 308 309 309 308 307 307 307 307 307
301 296 295 298 300 297 294 294 293 292 293 292 292 291 290 293 295 295 298 298 299 299 300 301 303 303 303 302 302 302 303 303 303 303 302 306 308 308 308 306 304 302 302 301
294 292 293 294 298 296 294 292 291 291 291 291 292 292 291 290 291 292 294 295 296 296 297 298 299 300 301 301 301 301 301 301 301 302 302 302 306 308 308 307 305 303 301 299
290 290 291 293 294 294 294 292 290 289 289 290 291 292 292 291 292 291 291 293 293 294 295 296 297 298 299 299 300 300 301 301 301 301 300 300 301 306 307 307 307 306 303 301
290 291 292 293 292 292 291 289 289 288 286 288 289 291 291 291 291 291 292 292 292 293 293 294 296 297 298 300 300 300 301 301 301 301 300 300 300 299 304 306 306 306 305 303
Wind_Speed
8 8 10 14 15 16 9 11 14 11 3 5 13 19 22 24 27 27 26 23 23 22 17 17 16 16 13 11 10 12 16 17 15 18 16 15 14 14 11 12 11 10 4 2
5 12 12 3 8 10 11 12 12 10 1 4 14 22 24 18 10 11 14 14 17 19 19 16 16 15 11 10 8 10 14 14 12 13 14 16 14 13 15 10 9 8 2 3
14 1 2 8 9 11 12 11 4 7 7 12 12 12 6 5 6 7 7 6 7 15 21 18 16 14 11 9 7 9 12 12 10 10 11 11 15 16 12 11 8 7 6 5
12 11 7 9 14 12 13 3 7 6 6 5 2 7 5 9 8 7 8 9 8 11 19 18 16 14 11 8 6 8 10 9 7 8 9 9 12 13 14 10 7 9 9 12
6 8 10 11 6 11 1 2 3 3 6 8 6 4 6 4 5 4 5 6 6 11 18 18 16 14 12 7 5 7 7 6 6 5 7 6 8 9 12 9 10 11 16 14
3 1 6 4 4 2 8 3 3 3 4 5 4 5 4 3 1 3 5 7 9 13 16 16 15 15 11 7 5 6 4 4 4 3 3 5 6 9 9 9 14 15 19 13
7 7 4 5 5 4 6 5 2 3 4 5 2 5 11 5 3 3 8 11 13 15 16 17 17 15 11 7 6 5 3 2 2 2 0 4 4 7 8 9 16 21 14 12
12 8 14 13 8 6 11 5 5 5 3 2 2 6 5 2 1 5 9 13 15 16 15 16 16 14 11 8 6 6 3 4 4 2 1 3 5 5 9 8 10 17 16 14
9 7 3 7 2 3 8 8 2 4 2 3 7 9 10 8 6 9 11 15 16 17 17 16 17 15 12 10 7 7 5 4 7 5 4 5 5 4 7 10 10 12 10 11
4 4 5 4 3 5 4 4 3 4 4 6 6 5 10 4 9 11 13 16 18 17 17 17 17 17 14 12 9 8 7 5 9 9 8 7 7 5 8 11 13 11 12 11
11 8 6 5 11 14 6 7 6 3 4 4 4 5 1 2 2 11 11 17 18 20 20 19 19 18 16 14 12 10 9 6 7 10 11 10 10 10 10 10 13 14 14 13
19 7 8 8 3 6 14 14 17 6 6 5 2 7 3 2 2 1 6 14 16 17 18 19 20 19 19 17 15 12 12 10 7 10 14 13 13 11 13 12 14 15 15 16
12 5 4 3 4 4 8 14 16 14 3 8 5 4 1 2 3 4 3 12 14 15 17 18 19 21 21 19 18 15 14 14 10 10 13 14 15 12 14 17 17 17 15 17
9 3 10 10 3 8 7 16 19 18 7 7 15 11 5 5 6 7 8 13 14 15 17 19 20 23 23 22 20 18 16 16 15 13 14 14 15 15 15 17 17 18 17 16
3 4 5 12 8 4 5 11 21 25 24 12 8 21 18 7 7 9 10 11 14 17 21 25 26 26 25 25 24 22 19 18 19 17 15 16 16 18 17 17 16 16 17 16
5 2 1 4 7 8 5 11 15 24 22 25 20 16 7 11 9 14 12 12 15 18 22 25 26 27 27 27 27 25 23 21 21 21 19 17 15 15 17 18 18 16 17 17
6 4 4 5 2 2 8 20 18 14 14 21 21 19 16 13 11 16 20 19 20 20 20 21 24 27 27 28 30 30 26 24 23 23 24 21 18 17 16 18 18 18 18 18
4 4 3 1 5 7 3 3 5 21 15 17 17 16 17 14 19 20 12 11 15 18 19 19 19 20 24 27 30 31 29 28 25 25 26 25 22 21 20 21 22 20 19 19
9 4 3 4 6 8 7 5 3 7 5 20 17 18 23 27 21 19 23 22 23 17 16 16 20 20 19 25 28 30 32 31 28 27 27 27 24 24 23 24 24 23 21 21
13 10 5 4 5 7 7 17 20 10 7 21 23 19 22 25 10 9 14 13 16 17 16 15 16 16 16 19 23 30 33 34 34 31 28 28 26 25 24 24 24 23 23 21
2 3 12 11 5 2 16 17 14 7 6 24 26 26 27 15 15 18 13 7 2 2 4 5 7 10 11 15 19 28 32 36 33 32 29 29 29 28 26 24 24 24 25 24
3 4 2 3 6 4 28 10 6 8 13 21 27 28 30 28 26 26 16 12 11 9 8 8 8 9 9 10 14 20 28 28 32 35 32 32 33 33 31 30 27 27 27 27
1 3 4 5 3 2 13 15 10 14 15 25 25 29 28 27 27 23 23 19 16 13 11 9 8 8 8 9 11 14 18 23 28 36 37 35 36 36 36 34 33 32 31 31
1 3 2 6 4 8 10 9 14 19 17 22 27 29 31 28 28 29 22 19 17 17 16 14 11 7 6 7 8 9 12 16 23 30 38 38 38 40 40 39 38 37 36 35
10 7 3 6 5 6 8 16 19 16 15 20 21 22 27 30 31 30 28 27 25 23 20 18 15 12 10 8 8 8 9 13 18 23 29 38 41 42 44 44 44 43 42 40
6 4 3 4 4 5 8 11 17 13 15 19 20 22 22 27 29 30 30 30 31 30 29 26 20 16 15 12 10 9 10 11 14 19 24 31 38 43 45 48 48 47 45 44
Wind_Direction
194 214 213 222 224 257 291 277 275 280 120 286 266 278 283 280 271 261 255 250 239 222 218 204 200 219 233 255 280 314 328 333 333 338 352 2 360 1 356 348 334 339 311 207
179 236 235 215 274 242 249 265 273 281 181 267 296 292 285 287 275 268 251 243 237 219 205 196 197 211 224 248 284 318 335 337 333 346 356 10 19 23 2 359 357 7 55 154
231 156 288 194 214 224 230 247 263 279 309 254 295 279 264 211 229 228 222 208 210 212 199 196 192 203 217 241 282 319 333 340 338 351 7 39 43 34 35 35 2 40 75 109
242 240 181 204 229 223 255 232 244 279 306 297 20 289 298 268 264 218 222 209 205 196 194 192 187 196 208 236 279 316 329 342 344 360 12 48 36 22 35 32 38 80 100 101
181 184 202 215 222 196 193 124 215 250 271 313 190 255 263 255 268 188 182 181 181 182 182 182 184 194 209 231 278 311 323 343 338 351 12 68 46 36 22 60 92 98 107 120
270 51 214 233 92 219 127 160 210 248 263 248 180 231 277 237 192 140 142 152 159 160 166 171 182 195 208 228 270 302 316 338 324 325 5 75 70 53 71 82 104 104 111 111
190 202 154 158 136 137 193 199 240 234 213 255 139 226 259 256 219 188 164 158 160 161 164 174 187 193 206 226 263 288 305 305 277 330 120 102 111 86 96 92 122 124 127 134
203 206 187 181 217 181 193 230 235 257 242 13 139 234 252 44 124 146 157 160 162 170 177 186 192 198 206 223 253 269 267 251 223 257 189 157 125 128 112 106 135 139 129 129
200 217 109 195 165 193 159 213 359 296 112 273 239 249 267 173 185 187 166 170 178 182 186 191 197 204 211 222 240 251 255 255 212 228 219 213 148 151 144 134 141 155 151 158
226 208 205 145 193 218 235 132 159 223 230 248 233 248 251 204 219 199 195 192 190 189 191 195 203 208 213 221 233 241 250 253 214 223 226 217 182 155 158 154 156 164 166 163
219 234 131 154 207 187 175 206 223 270 238 254 279 241 57 298 162 198 203 201 193 192 194 198 205 210 215 222 230 233 235 238 224 216 217 220 205 175 169 176 177 170 176 176
211 238 206 201 67 280 242 213 204 215 196 238 347 257 141 137 140 220 242 193 197 195 195 200 207 211 215 221 227 231 228 226 240 216 210 216 211 195 186 192 192 191 191 182
171 208 150 251 212 197 223 214 235 238 324 210 193 241 163 161 213 219 210 181 186 192 195 199 206 213 218 221 224 227 228 222 226 213 204 216 215 215 195 193 205 203 202 197
198 215 228 223 61 137 199 204 208 212 220 217 227 250 169 201 214 206 197 187 184 192 200 205 211 218 222 224 226 225 226 222 220 215 215 219 218 212 210 203 207 205 207 208
220 258 235 262 265 226 232 210 206 214 221 216 244 227 246 233 215 195 186 185 191 203 209 214 217 222 225 227 227 226 226 224 220 217 218 220 226 221 215 217 214 211 212 212
189 243 265 260 251 239 257 243 224 223 229 247 263 266 288 297 261 217 243 245 229 226 225 221 222 226 229 232 232 230 228 227 221 220 222 223 223 217 217 212 212 216 216 206
168 186 182 234 141 155 268 233 225 222 220 230 238 247 263 261 256 258 263 251 237 236 228 226 229 231 236 240 239 235 230 227 225 222 223 224 226 212 201 198 203 201 194 191
183 185 191 209 142 211 258 81 244 221 230 238 258 258 267 285 282 274 243 247 239 237 233 228 235 239 246 246 241 232 229 228 227 224 223 224 224 218 206 204 202 203 200 198
205 191 219 225 212 319 286 37 330 172 93 19 359 344 325 307 293 279 267 259 262 249 235 243 260 254 244 250 243 231 226 227 226 226 224 222 221 218 210 207 206 206 198 192
211 209 215 179 234 225 40 331 329 303 157 10 356 344 345 330 284 300 336 265 250 245 259 256 250 250 252 249 243 228 226 224 224 226 226 219 217 216 211 205 206 202 196 194
286 226 221 227 229 103 340 329 307 195 357 352 353 347 341 338 317 331 334 336 306 246 256 256 258 265 265 253 246 231 227 227 225 225 224 218 214 212 211 209 207 205 205 208
349 330 319 249 228 208 356 29 55 348 348 355 354 353 345 337 345 351 350 344 337 327 308 286 283 282 287 273 257 240 234 234 227 226 225 220 214 211 211 213 213 215 217 219
211 40 308 356 31 15 68 85 61 16 359 356 352 353 354 351 353 358 3 2 3 2 359 349 319 297 293 291 272 256 247 237 231 228 226 225 219 217 217 217 217 219 221 225
4 146 279 330 172 322 327 36 10 3 350 349 350 351 356 357 354 354 357 357 356 357 355 355 0 343 315 308 292 274 253 241 239 238 232 229 226 224 223 223 224 225 226 228
270 293 291 270 270 287 20 352 340 347 345 345 344 345 344 347 352 353 352 349 345 343 340 343 342 340 337 324 308 292 265 246 239 238 240 236 232 231 231 230 230 230 232 233
243 270 266 297 64 322 334 337 322 332 337 333 332 332 333 332 331 334 341 347 347 344 337 331 330 328 327 321 314 298 282 268 253 244 241 240 237 236 237 237 237 237 238 241